Wind_Speed
119 120 122 124 125 127 128 130 131 133 135 137 138 140 142 144 145 147 148 150 151 152 153 154 155 155 156 156 157 157 158 158 158 159 159 160 160 160 160 160 161 161
121 123 125 126 128 130 131 133 135 136 138 140 142 144 145 146 148 149 151 152 153 154 155 156 157 157 157 158 158 159 159 159 160 160 160 161 161 162 162 162 162 162
124 125 127 129 130 132 134 136 138 140 141 143 145 146 147 148 150 151 152 153 154 155 156 157 157 158 158 158 159 159 160 160 161 161 162 162 163 163 164 164 164 164
126 127 129 131 132 134 136 138 140 141 143 144 146 147 148 149 150 151 152 153 154 155 156 156 157 157 158 158 158 159 159 160 161 162 162 162 163 164 164 165 165 165
128 129 130 132 134 135 137 138 140 141 142 144 145 146 147 148 149 150 151 152 152 153 153 153 154 154 154 155 156 157 158 158 160 160 161 161 162 163 164 165 165 165
128 130 131 132 133 134 135 136 138 139 140 141 142 144 145 146 146 147 147 147 147 147 148 148 149 149 151 152 153 154 155 156 157 158 159 160 161 162 163 164 164 164
128 129 130 131 132 133 134 135 136 137 137 138 139 140 141 142 142 142 142 142 142 143 144 145 146 147 149 150 151 152 153 154 155 156 157 158 159 160 161 162 162 163
128 128 129 130 131 132 132 133 134 135 136 136 137 138 138 139 139 139 140 141 142 143 144 145 146 146 147 148 149 150 150 151 152 152 153 153 154 155 156 157 157 158
128 128 129 130 130 131 132 133 134 135 135 136 136 137 137 138 139 140 141 142 142 143 143 144 144 144 145 145 145 145 145 145 145 146 145 146 146 147 147 148 149 150
128 128 129 130 132 132 133 134 135 136 136 137 137 138 139 140 141 141 141 141 141 141 140 140 140 140 140 139 139 138 138 137 137 137 137 137 137 137 138 138 139 140
128 129 131 132 133 134 135 135 136 137 137 138 140 140 141 141 140 139 139 139 138 138 137 137 136 136 135 133 133 132 131 130 129 129 129 129 129 129 129 130 131 132
130 131 132 133 134 135 136 136 137 138 139 140 140 139 139 138 138 137 137 137 137 136 135 134 132 131 129 128 127 126 125 124 123 123 122 122 122 122 123 123 124 126
130 131 132 133 134 136 137 138 139 139 139 138 137 137 137 137 137 136 136 135 133 132 130 128 126 125 123 121 120 119 118 117 116 116 116 115 115 116 116 117 118 119
130 131 132 134 135 137 138 138 138 137 136 136 135 136 136 135 134 133 131 129 128 126 124 122 120 118 117 115 114 113 112 111 110 110 109 109 109 110 111 111 112 112
130 131 133 135 137 137 137 136 135 134 134 134 134 134 133 131 129 127 125 124 122 120 118 117 115 113 112 110 109 107 106 105 105 104 104 104 104 105 105 106 106 106
131 133 135 136 136 135 134 133 133 133 132 132 131 130 127 125 123 122 120 119 117 116 114 112 111 109 107 106 104 103 101 101 100 100 99 99 99 99 100 100 101 101
132 134 134 134 133 132 132 132 131 130 130 128 127 124 122 120 119 117 116 114 113 112 110 109 108 106 105 103 102 100 98 97 96 96 95 95 94 94 95 96 96 96
132 132 132 131 131 131 130 130 128 127 126 124 121 119 117 116 115 113 112 111 110 109 107 106 105 104 102 101 99 97 95 94 93 92 91 91 90 90 91 91 92 92
130 130 130 130 130 129 128 127 125 123 121 118 116 114 113 112 111 110 109 108 107 106 105 103 102 101 99 98 96 95 93 91 90 89 88 87 87 87 87 87 87 88
128 129 129 129 128 127 125 123 121 119 116 114 112 111 109 108 107 107 106 105 104 103 101 99 98 97 96 95 93 92 90 88 87 85 84 83 83 83 84 83 83 83
128 128 128 127 126 124 121 118 116 114 112 110 109 107 106 105 104 103 102 101 100 99 97 96 95 94 93 92 90 88 87 85 83 82 80 80 80 80 80 79 79 79
127 127 126 125 122 119 116 114 112 110 108 107 106 104 103 101 100 98 97 97 95 95 94 92 91 90 89 88 86 85 83 82 80 78 77 76 76 76 76 75 75 76
126 125 123 119 116 114 112 110 108 106 105 103 102 100 98 97 95 93 92 92 91 91 90 88 87 86 85 84 82 81 79 78 77 75 73 73 72 72 73 72 72 72
123 120 117 113 111 109 107 106 105 103 101 98 97 95 94 92 91 90 89 88 87 86 86 85 83 82 81 80 78 77 76 75 74 72 71 70 70 69 69 69 69 69
117 114 111 109 107 105 103 102 101 98 96 94 92 90 89 88 87 86 85 84 83 82 81 80 79 78 77 76 75 74 73 72 71 69 68 68 68 67 66 66 66 65
111 109 107 105 104 101 99 97 95 93 91 89 87 86 85 84 83 82 81 79 79 78 76 76 75 74 73 72 71 71 70 69 68 67 66 65 65 65 65 64 63 63
Wind_Direction
277 277 277 277 277 277 277 277 277 277 277 277 276 276 276 276 276 276 277 277 277 277 277 277 276 276 276 276 276 276 276 276 276 276 276 276 276 275 275 275 274 274
278 278 278 278 278 278 278 278 277 277 277 277 276 276 276 276 276 276 276 276 277 277 277 277 277 277 277 277 277 277 277 277 277 277 277 276 276 276 275 275 275 274
279 279 279 278 278 278 278 277 277 277 277 277 276 276 276 276 276 276 277 277 277 277 277 277 277 277 277 277 277 277 277 277 277 277 276 276 276 275 275 275 274 274
279 279 279 278 278 278 277 277 277 277 277 277 277 277 277 277 277 277 277 277 277 277 277 277 277 277 277 277 277 277 276 276 276 275 275 275 275 275 274 274 274 274
279 279 279 278 278 278 278 278 278 277 277 277 277 277 277 277 277 277 277 277 277 277 277 277 277 277 276 276 276 275 275 275 275 274 274 274 274 274 274 274 274 274
280 280 280 280 279 279 279 279 279 279 278 278 278 278 278 278 278 278 278 278 278 278 278 278 277 277 276 276 275 275 275 274 274 274 274 274 274 273 274 274 274 274
282 282 282 282 281 281 281 281 281 280 280 280 280 280 280 280 280 280 280 280 280 280 279 279 278 278 277 277 276 276 275 275 275 274 274 274 274 274 274 274 274 274
284 284 284 284 283 283 283 283 283 283 283 283 283 283 283 283 283 284 283 283 282 282 281 280 280 279 278 278 277 277 276 276 276 275 275 275 274 274 274 274 274 273
286 285 286 286 286 286 286 286 285 285 285 285 286 286 286 286 286 286 285 284 284 283 282 282 281 280 280 279 278 278 278 277 277 277 276 276 275 275 275 274 274 273
287 287 287 287 288 288 288 287 287 288 288 288 288 289 288 288 287 286 286 285 285 284 284 283 282 282 281 281 280 280 279 279 279 278 278 277 276 276 275 275 274 274
288 288 289 289 289 289 289 289 289 289 290 290 290 290 289 289 288 288 287 287 286 286 285 285 284 284 283 283 283 282 282 281 280 280 279 278 278 277 276 275 275 274
289 289 289 289 289 289 289 290 290 291 291 291 291 290 290 290 290 289 289 288 288 287 287 286 286 285 285 285 284 283 283 282 281 281 280 279 278 278 277 276 275 274
289 289 289 289 290 290 291 291 292 292 292 292 292 291 291 291 291 290 290 289 289 288 288 287 287 286 286 285 285 284 283 283 282 281 281 280 279 278 277 276 275 275
289 290 290 290 291 292 292 293 293 293 293 292 292 292 292 292 291 291 291 290 290 289 289 289 288 288 287 286 286 285 284 284 283 282 281 281 280 279 278 277 276 276
290 290 291 292 293 294 294 294 293 293 293 293 293 293 293 292 292 292 292 291 291 291 290 290 289 289 288 288 287 287 286 285 285 284 283 282 281 280 280 279 278 278
292 293 294 294 294 294 294 294 294 294 294 294 294 294 294 294 294 293 293 293 293 292 292 292 291 291 290 290 289 289 288 287 286 285 284 283 282 282 281 280 279 279
294 295 295 295 294 294 295 295 295 295 296 295 295 295 295 295 295 295 295 295 294 294 294 294 294 293 293 292 291 290 290 289 288 287 286 285 284 284 282 281 280 280
296 296 295 295 295 296 296 296 296 297 297 297 296 296 296 296 296 296 296 296 296 296 296 296 295 295 294 294 293 292 292 291 290 289 288 288 286 285 284 283 282 281
296 296 296 296 297 297 297 298 298 298 298 297 297 297 297 297 298 298 297 297 297 297 297 296 296 296 295 295 295 294 293 293 292 291 290 289 288 287 285 284 283 282
297 297 297 298 298 298 299 299 299 298 298 298 298 298 298 299 298 298 298 297 297 297 297 297 297 297 297 296 296 295 295 294 293 292 291 290 289 288 286 285 284 283
298 298 299 299 299 299 299 299 299 299 299 299 299 299 299 299 298 298 298 298 298 298 298 298 298 297 297 297 297 296 296 295 294 293 292 291 290 289 287 286 285 284
299 300 300 300 300 300 300 299 299 300 300 300 300 299 299 298 298 298 298 299 299 298 298 298 298 298 298 298 297 297 297 296 295 295 294 292 291 290 289 288 287 286
301 300 300 300 300 300 300 300 300 300 300 300 300 299 299 299 299 299 299 299 299 299 299 299 299 299 298 298 298 298 298 297 297 296 295 294 293 291 290 289 288 287
301 300 300 300 300 300 300 301 300 300 300 300 300 299 300 300 300 299 299 299 299 299 299 299 299 299 299 299 299 299 299 298 298 297 296 295 294 292 291 291 289 288
301 301 301 301 301 301 301 301 300 300 300 300 300 300 300 300 300 300 300 300 300 300 300 300 300 300 300 300 300 300 300 299 299 298 297 296 295 294 292 291 291 289
301 301 301 301 301 301 301 300 300 300 301 301 301 300 300 300 300 300 300 300 300 300 301 301 301 301 301 301 301 301 300 300 300 299 298 297 296 295 294 292 291 290
Height
10408 10403 10398 10394 10389 10385 10381 10377 10372 10366 10360 10355 10350 10345 10340 10334 10329 10324 10318 10312 10307 10302 10297 10293 10289 10284 10280 10276 10272 10268 10264 10261 10258 10255 10253 10249 10244 10242 10240 10238 10234 10231
10392 10387 10382 10377 10372 10368 10363 10358 10353 10347 10341 10335 10331 10326 10321 10315 10310 10304 10299 10294 10288 10282 10276 10272 10267 10263 10259 10255 10251 10246 10242 10238 10235 10231 10230 10227 10221 10216 10214 10212 10209 10205
10376 10371 10365 10360 10355 10350 10344 10338 10333 10327 10321 10315 10310 10305 10301 10295 10290 10285 10279 10274 10268 10262 10256 10251 10246 10241 10237 10234 10230 10225 10220 10216 10212 10208 10204 10201 10196 10191 10188 10185 10183 10180
10359 10354 10348 10342 10337 10331 10325 10319 10313 10307 10301 10295 10289 10284 10280 10275 10270 10264 10259 10253 10248 10242 10237 10231 10226 10221 10216 10212 10207 10203 10198 10193 10188 10184 10181 10177 10171 10166 10162 10159 10157 10154
10342 10337 10331 10324 10318 10313 10306 10300 10294 10287 10281 10275 10270 10264 10259 10254 10249 10244 10238 10233 10227 10222 10217 10211 10205 10200 10194 10189 10184 10179 10174 10170 10164 10159 10156 10153 10147 10142 10137 10133 10131 10129
10324 10318 10312 10305 10299 10293 10287 10280 10274 10268 10262 10256 10250 10244 10238 10232 10227 10223 10218 10213 10207 10201 10195 10189 10183 10177 10171 10165 10160 10155 10149 10145 10141 10136 10131 10128 10123 10118 10113 10108 10105 10103
10305 10299 10293 10286 10280 10273 10267 10261 10254 10248 10242 10236 10230 10223 10217 10212 10206 10201 10196 10191 10185 10178 10172 10166 10159 10153 10147 10141 10135 10130 10125 10120 10116 10112 10108 10103 10099 10095 10089 10084 10081 10078
10286 10280 10273 10267 10260 10253 10247 10240 10234 10227 10221 10215 10209 10203 10196 10191 10185 10180 10174 10167 10161 10154 10148 10142 10135 10129 10122 10116 10111 10106 10101 10095 10090 10087 10084 10080 10075 10071 10067 10061 10057 10054
10267 10261 10254 10248 10241 10233 10226 10220 10213 10207 10200 10194 10189 10183 10176 10170 10164 10157 10150 10144 10137 10131 10124 10117 10110 10104 10097 10091 10086 10082 10078 10073 10067 10063 10060 10057 10052 10047 10043 10039 10034 10031
10249 10242 10236 10228 10221 10214 10207 10200 10193 10186 10180 10174 10168 10162 10155 10148 10141 10134 10127 10121 10114 10107 10100 10092 10085 10078 10073 10067 10063 10059 10055 10051 10045 10041 10036 10033 10029 10024 10020 10016 10011 10006
10232 10225 10217 10210 10202 10195 10188 10181 10174 10168 10161 10155 10148 10141 10133 10126 10118 10111 10104 10097 10090 10082 10075 10068 10061 10055 10050 10045 10041 10036 10031 10028 10023 10019 10014 10010 10006 10002 9997 9993 9988 9982
10215 10207 10199 10191 10184 10177 10169 10162 10156 10149 10142 10134 10127 10119 10112 10104 10096 10088 10081 10073 10066 10058 10051 10045 10039 10033 10029 10025 10020 10014 10009 10006 10001 9996 9993 9988 9983 9979 9974 9970 9965 9960
10198 10190 10182 10174 10166 10159 10152 10145 10138 10130 10122 10114 10106 10098 10090 10082 10075 10067 10059 10051 10043 10036 10029 10024 10019 10013 10009 10004 9998 9993 9989 9985 9980 9975 9971 9967 9962 9957 9952 9947 9943 9940
10181 10173 10165 10157 10149 10142 10134 10127 10119 10111 10103 10095 10087 10078 10069 10061 10054 10046 10038 10030 10022 10015 10009 10003 9999 9993 9988 9983 9978 9973 9970 9966 9961 9956 9951 9946 9941 9936 9932 9928 9925 9923
10165 10157 10148 10139 10131 10123 10116 10108 10100 10092 10084 10076 10067 10057 10049 10041 10034 10026 10018 10010 10002 9995 9989 9984 9979 9973 9968 9963 9959 9956 9951 9947 9942 9936 9932 9928 9924 9919 9915 9911 9908 9906
10149 10140 10131 10121 10112 10104 10097 10089 10081 10073 10065 10056 10046 10037 10030 10022 10014 10006 9998 9991 9984 9977 9971 9965 9959 9954 9949 9944 9941 9938 9935 9929 9923 9918 9914 9911 9908 9903 9899 9895 9891 9889
10133 10123 10112 10102 10094 10087 10080 10071 10063 10055 10046 10037 10027 10019 10012 10003 9995 9988 9980 9973 9966 9959 9954 9948 9941 9937 9931 9926 9922 9919 9918 9913 9907 9902 9898 9894 9891 9887 9882 9878 9874 9871
10115 10104 10093 10084 10077 10070 10061 10052 10045 10036 10027 10018 10010 10003 9995 9986 9978 9971 9963 9956 9949 9942 9937 9932 9925 9920 9914 9909 9905 9902 9899 9897 9891 9887 9883 9879 9875 9871 9866 9862 9858 9855
10096 10085 10074 10067 10060 10051 10042 10034 10026 10018 10009 10001 9994 9986 9978 9970 9963 9955 9948 9941 9934 9927 9923 9917 9910 9905 9899 9894 9890 9886 9883 9880 9876 9872 9868 9865 9861 9856 9851 9846 9843 9840
10076 10066 10057 10049 10041 10032 10024 10016 10008 10000 9992 9985 9978 9971 9963 9956 9949 9941 9933 9927 9920 9913 9909 9904 9896 9891 9886 9880 9876 9872 9869 9865 9862 9858 9855 9851 9847 9841 9836 9832 9829 9826
10058 10049 10040 10031 10022 10014 10007 9999 9991 9984 9977 9969 9962 9956 9949 9942 9935 9927 9919 9913 9908 9900 9895 9891 9885 9878 9873 9867 9862 9859 9855 9852 9848 9845 9842 9838 9833 9827 9823 9819 9816 9812
10040 10032 10023 10013 10005 9997 9990 9983 9976 9969 9963 9955 9948 9942 9936 9928 9922 9916 9907 9900 9895 9888 9882 9878 9873 9867 9861 9856 9851 9847 9843 9839 9836 9833 9829 9825 9820 9815 9810 9807 9803 9800
10023 10015 10006 9997 9989 9982 9975 9968 9961 9954 9949 9942 9935 9928 9922 9915 9909 9903 9897 9889 9883 9877 9871 9866 9861 9856 9850 9845 9840 9836 9831 9827 9823 9821 9818 9813 9808 9803 9798 9795 9792 9788
10006 9998 9990 9982 9974 9967 9961 9954 9946 9940 9935 9929 9922 9914 9908 9902 9896 9891 9885 9879 9873 9866 9860 9854 9850 9845 9839 9834 9829 9825 9820 9816 9812 9809 9806 9801 9797 9793 9788 9783 9780 9777
9989 9982 9975 9967 9959 9953 9948 9940 9933 9927 9922 9916 9910 9903 9896 9890 9884 9879 9874 9868 9862 9857 9851 9844 9839 9834 9829 9824 9819 9814 9810 9805 9801 9798 9795 9790 9785 9781 9778 9774 9770 9767
9974 9967 9960 9953 9946 9940 9935 9928 9920 9914 9908 9903 9897 9891 9885 9880 9874 9868 9863 9858 9852 9846 9841 9835 9829 9824 9820 9814 9809 9804 9800 9796 9791 9788 9785 9780 9775 9770 9767 9764 9761 9758